Weather History for Miami, FL

Change the Weather History Date:

Tuesday, December 24, 2013

  Actual Average Record
Temperature  
Mean Temperature 77 °F 69 °F  
Max Temperature 86 °F 77 °F 86 °F (1990)
Min Temperature 68 °F 62 °F 31 °F (1989)
Degree Days  
Heating Degree Days 0 1  
Month to date heating degree days 0 20  
Since 1 July heating degree days 2 23  
Cooling Degree Days 12 6  
Month to date cooling degree days 250 164  
Year to date cooling degree days 4791 4536  
Growing Degree Days 27 (Base 50)    
Moisture  
Dew Point 66 °F    
Average Humidity 76    
Maximum Humidity 100    
Minimum Humidity 51    
Precipitation  
Precipitation 0.00 in 0.06 in 0.71 in (1971)
Month to date precipitation 0.46 1.64  
Year to date precipitation 66.21 61.50  
Snow  
Snow 0.00 in - - ()
Month to date snowfall 0.0  
Since 1 July snowfall 0.0  
Snow Depth 0.00 in    
Sea Level Pressure  
Sea Level Pressure 30.14 in    
Wind  
Wind Speed 5 mph (NNW)    
Max Wind Speed 15 mph    
Max Gust Speed 30 mph    
Visibility 9 miles    
Events      
T = Trace of Precipitation, MM = Missing Value Source: NWS Daily Summary

Daily Weather History Graph

Daily Weather History Graph

Search for Another Location

Airport:

Trip Planner

Search our weather history database for the weather conditions in past years. The results will help you decide how hot, cold, wet, or windy it might be!

Date:

Astronomy

Dec. 24, 2013 Rise Set
Actual Time 7:05 AM EST 5:37 PM EST
Civil Twilight 6:39 AM EST 6:02 PM EST
Nautical Twilight 6:11 AM EST 6:30 PM EST
Astronomical Twilight 5:42 AM EST 6:59 PM EST
Moon No Moon Rise 11:35 AM EST (12/24)
Length of Visible Light 11h 22m
Length of Day
10h 31m
Waning Gibbous, 59% of the Moon is Illuminated
Dec 24
Waning Gibbous
Dec 25
Last Quarter
Jan 1
New
Jan 7
First Quarter
Jan 15
Full

Hourly Weather History & Observations

Time (EST) Temp. Heat Index Dew Point Humidity Pressure Visibility Wind Dir Wind Speed Gust Speed Precip Events Conditions
12:53 AM 73.0 °F - 70.0 °F 90% 30.15 in 9.0 mi WNW 3.5 mph - N/A   Partly Cloudy
1:53 AM 72.0 °F - 70.0 °F 93% 30.14 in 9.0 mi Calm Calm - N/A   Scattered Clouds
2:53 AM 72.0 °F - 70.0 °F 93% 30.14 in 9.0 mi Calm Calm - N/A   Scattered Clouds
3:53 AM 70.0 °F - 69.1 °F 97% 30.13 in 7.0 mi Calm Calm - N/A   Clear
4:53 AM 70.0 °F - 69.1 °F 97% 30.13 in 7.0 mi Calm Calm - N/A   Clear
5:53 AM 71.1 °F - 69.1 °F 93% 30.14 in 7.0 mi NW 3.5 mph - N/A   Partly Cloudy
6:53 AM 71.1 °F - 70.0 °F 96% 30.16 in 7.0 mi Calm Calm - N/A   Partly Cloudy
7:53 AM 72.0 °F - 71.1 °F 97% 30.18 in 10.0 mi Calm Calm - N/A   Scattered Clouds
8:53 AM 77.0 °F - 73.0 °F 88% 30.18 in 10.0 mi Calm Calm - N/A   Scattered Clouds
9:53 AM 78.1 °F - 70.0 °F 76% 30.19 in 10.0 mi Calm Calm - N/A   Scattered Clouds
10:53 AM 80.1 °F 82.9 °F 69.1 °F 69% 30.17 in 10.0 mi WNW 4.6 mph - N/A   Mostly Cloudy
11:53 AM 82.9 °F 85.0 °F 66.0 °F 56% 30.14 in 10.0 mi WNW 8.1 mph - N/A   Mostly Cloudy
12:53 PM 84.0 °F 85.8 °F 64.9 °F 53% 30.11 in 10.0 mi WNW 4.6 mph - N/A   Scattered Clouds
1:53 PM 82.0 °F 85.9 °F 70.0 °F 67% 30.09 in 10.0 mi NNW 11.5 mph 20.7 mph N/A   Mostly Cloudy
2:53 PM 82.0 °F 85.5 °F 69.1 °F 65% 30.08 in 10.0 mi NNW 8.1 mph - N/A   Mostly Cloudy
3:53 PM 79.0 °F - 68.0 °F 69% 30.09 in 10.0 mi North 9.2 mph - N/A   Mostly Cloudy
4:53 PM 77.0 °F - 66.9 °F 71% 30.10 in 10.0 mi NNW 11.5 mph 19.6 mph N/A   Mostly Cloudy
5:50 PM 75.2 °F - 66.2 °F 73% 30.11 in 10.0 mi North 11.5 mph 18.4 mph N/A   Overcast
5:53 PM 73.9 °F - 66.0 °F 76% 30.12 in 10.0 mi North 9.2 mph 18.4 mph N/A   Overcast
6:53 PM 71.1 °F - 64.0 °F 78% 30.14 in 10.0 mi North 12.7 mph 23.0 mph N/A   Overcast
7:51 PM 69.8 °F - 62.6 °F 78% 30.15 in 10.0 mi Variable 6.9 mph - N/A   Scattered Clouds
7:53 PM 69.1 °F - 62.1 °F 78% 30.15 in 10.0 mi Variable 6.9 mph - N/A   Scattered Clouds
8:28 PM 69.8 °F - 60.8 °F 73% 30.15 in 10.0 mi Variable 4.6 mph - N/A   Mostly Cloudy
8:51 PM 69.8 °F - 60.8 °F 73% 30.15 in 10.0 mi North 10.4 mph - N/A   Mostly Cloudy
8:53 PM 69.1 °F - 60.1 °F 73% 30.16 in 10.0 mi North 9.2 mph - N/A   Mostly Cloudy
9:53 PM 68.0 °F - 59.0 °F 73% 30.15 in 10.0 mi North 6.9 mph - N/A   Scattered Clouds
10:53 PM 68.0 °F - 59.0 °F 73% 30.15 in 10.0 mi Variable 5.8 mph - N/A   Scattered Clouds
11:14 PM 68.0 °F - 59.0 °F 73% 30.15 in 10.0 mi North 6.9 mph - N/A   Mostly Cloudy
11:53 PM 68.0 °F - 60.1 °F 76% 30.14 in 10.0 mi North 4.6 mph - N/A   Mostly Cloudy